QPF
0.08 0.07 0.08 0.07 0.06 0.04 0.03 0.03 0.03 0.05 0.04 0.03 0.04 0.09 0.21 0.18 0.10 0.06 0.04 0.05 0.06 0.07 0.06 0.07 0.10 0.12 0.18 0.25 0.18 0.16 0.16 0.12 0.09 0.11 0.12 0.14 0.13 0.14 0.16 0.19 0.12 0.08 0.08
0.07 0.07 0.09 0.07 0.06 0.07 0.08 0.09 0.11 0.09 0.05 0.05 0.05 0.13 0.20 0.11 0.06 0.05 0.04 0.05 0.05 0.06 0.08 0.07 0.10 0.11 0.14 0.14 0.11 0.10 0.10 0.09 0.09 0.12 0.13 0.14 0.16 0.18 0.18 0.23 0.17 0.12 0.12
0.07 0.07 0.08 0.07 0.07 0.09 0.15 0.17 0.14 0.10 0.08 0.06 0.05 0.09 0.09 0.05 0.04 0.04 0.04 0.05 0.05 0.05 0.08 0.10 0.10 0.09 0.10 0.11 0.10 0.09 0.09 0.08 0.08 0.11 0.12 0.09 0.10 0.12 0.12 0.12 0.09 0.09 0.12
0.06 0.06 0.06 0.07 0.08 0.07 0.08 0.09 0.09 0.08 0.08 0.07 0.06 0.06 0.05 0.05 0.04 0.03 0.04 0.04 0.05 0.07 0.09 0.12 0.09 0.07 0.09 0.12 0.13 0.10 0.09 0.10 0.09 0.11 0.09 0.05 0.04 0.09 0.10 0.08 0.07 0.07 0.08
0.04 0.06 0.06 0.08 0.11 0.11 0.08 0.07 0.08 0.12 0.12 0.08 0.07 0.06 0.05 0.05 0.03 0.03 0.04 0.06 0.07 0.07 0.06 0.06 0.06 0.06 0.06 0.09 0.12 0.13 0.11 0.10 0.11 0.10 0.06 0.04 0.03 0.06 0.07 0.08 0.08 0.09 0.09
0.04 0.06 0.06 0.10 0.14 0.13 0.14 0.11 0.09 0.13 0.10 0.07 0.07 0.05 0.05 0.05 0.05 0.04 0.05 0.07 0.06 0.05 0.05 0.05 0.05 0.05 0.06 0.09 0.11 0.14 0.13 0.12 0.12 0.07 0.05 0.03 0.02 0.04 0.05 0.07 0.09 0.11 0.08
0.04 0.05 0.07 0.15 0.11 0.05 0.08 0.10 0.10 0.13 0.15 0.09 0.06 0.05 0.05 0.05 0.06 0.08 0.07 0.07 0.06 0.06 0.05 0.05 0.05 0.06 0.07 0.08 0.10 0.14 0.15 0.15 0.09 0.03 0.02 0.02 0.02 0.04 0.05 0.06 0.08 0.09 0.08
0.04 0.05 0.08 0.15 0.10 0.05 0.05 0.07 0.07 0.10 0.14 0.11 0.07 0.04 0.04 0.05 0.05 0.06 0.08 0.09 0.09 0.08 0.07 0.07 0.07 0.08 0.07 0.10 0.15 0.20 0.15 0.14 0.08 0.04 0.02 0.02 0.03 0.03 0.04 0.05 0.07 0.08 0.07
0.04 0.05 0.07 0.11 0.10 0.06 0.04 0.05 0.06 0.08 0.10 0.10 0.08 0.07 0.05 0.05 0.06 0.07 0.08 0.08 0.08 0.08 0.08 0.07 0.07 0.07 0.08 0.13 0.18 0.19 0.14 0.13 0.07 0.04 0.03 0.02 0.03 0.03 0.06 0.06 0.05 0.06 0.07
0.03 0.04 0.05 0.05 0.06 0.05 0.06 0.06 0.08 0.07 0.08 0.09 0.08 0.08 0.07 0.07 0.06 0.07 0.06 0.06 0.07 0.09 0.10 0.10 0.09 0.09 0.09 0.13 0.20 0.17 0.13 0.11 0.06 0.04 0.04 0.03 0.04 0.04 0.07 0.08 0.05 0.05 0.06
0.03 0.03 0.04 0.04 0.05 0.04 0.03 0.05 0.06 0.06 0.06 0.07 0.08 0.07 0.06 0.06 0.04 0.05 0.05 0.07 0.10 0.12 0.11 0.12 0.11 0.09 0.08 0.11 0.17 0.17 0.13 0.08 0.04 0.04 0.04 0.05 0.05 0.05 0.07 0.07 0.05 0.05 0.05
0.04 0.04 0.04 0.05 0.04 0.03 0.03 0.04 0.03 0.02 0.03 0.03 0.04 0.04 0.04 0.04 0.04 0.05 0.07 0.11 0.15 0.14 0.12 0.11 0.08 0.07 0.07 0.07 0.10 0.15 0.13 0.09 0.05 0.06 0.06 0.07 0.05 0.06 0.07 0.08 0.06 0.05 0.06
0.05 0.05 0.04 0.04 0.04 0.03 0.03 0.03 0.03 0.02 0.02 0.02 0.02 0.02 0.03 0.06 0.08 0.09 0.08 0.08 0.11 0.12 0.09 0.07 0.06 0.06 0.05 0.06 0.07 0.08 0.08 0.08 0.09 0.08 0.08 0.06 0.04 0.05 0.07 0.08 0.08 0.07 0.07
0.05 0.06 0.05 0.06 0.06 0.06 0.06 0.05 0.03 0.02 0.02 0.02 0.02 0.02 0.04 0.12 0.22 0.24 0.15 0.09 0.10 0.13 0.10 0.06 0.06 0.06 0.04 0.05 0.06 0.05 0.06 0.09 0.08 0.07 0.06 0.05 0.04 0.04 0.07 0.11 0.13 0.11 0.09
0.05 0.06 0.08 0.09 0.10 0.09 0.06 0.03 0.03 0.03 0.03 0.03 0.03 0.02 0.02 0.09 0.20 0.26 0.22 0.15 0.13 0.17 0.16 0.09 0.05 0.04 0.04 0.06 0.08 0.07 0.07 0.06 0.07 0.06 0.05 0.06 0.06 0.06 0.09 0.13 0.15 0.13 0.11
0.05 0.06 0.08 0.07 0.07 0.06 0.04 0.02 0.02 0.02 0.02 0.02 0.02 0.02 0.02 0.05 0.07 0.09 0.12 0.12 0.13 0.20 0.24 0.19 0.12 0.09 0.08 0.08 0.10 0.08 0.07 0.07 0.07 0.08 0.07 0.08 0.09 0.09 0.10 0.14 0.18 0.13 0.11
0.04 0.05 0.05 0.05 0.05 0.04 0.03 0.02 0.02 0.01 0.02 0.02 0.02 0.03 0.03 0.04 0.05 0.05 0.06 0.08 0.10 0.17 0.24 0.30 0.27 0.16 0.13 0.11 0.09 0.08 0.07 0.07 0.07 0.09 0.06 0.05 0.05 0.07 0.09 0.14 0.21 0.15 0.12
0.03 0.03 0.04 0.05 0.04 0.04 0.03 0.03 0.02 0.02 0.02 0.02 0.02 0.03 0.04 0.05 0.05 0.06 0.08 0.09 0.09 0.10 0.13 0.19 0.24 0.19 0.13 0.11 0.09 0.06 0.05 0.05 0.05 0.04 0.04 0.05 0.03 0.03 0.05 0.09 0.12 0.12 0.12
0.05 0.03 0.03 0.04 0.04 0.04 0.05 0.04 0.03 0.03 0.03 0.03 0.03 0.03 0.03 0.04 0.05 0.06 0.06 0.07 0.09 0.09 0.10 0.09 0.12 0.13 0.11 0.09 0.08 0.06 0.05 0.04 0.05 0.04 0.03 0.04 0.03 0.03 0.04 0.06 0.09 0.10 0.10
0.06 0.03 0.02 0.02 0.03 0.03 0.03 0.02 0.02 0.02 0.04 0.04 0.04 0.04 0.04 0.05 0.06 0.05 0.05 0.04 0.04 0.05 0.07 0.06 0.05 0.08 0.10 0.10 0.09 0.08 0.06 0.05 0.06 0.05 0.05 0.05 0.04 0.05 0.06 0.07 0.08 0.09 0.09
0.04 0.04 0.02 0.02 0.01 0.02 0.02 0.01 0.01 0.02 0.04 0.04 0.04 0.04 0.05 0.06 0.05 0.04 0.04 0.03 0.02 0.03 0.04 0.05 0.04 0.04 0.10 0.11 0.11 0.12 0.11 0.07 0.07 0.07 0.06 0.05 0.06 0.08 0.09 0.08 0.06 0.07 0.10
0.03 0.03 0.02 0.02 0.02 0.02 0.02 0.02 0.02 0.02 0.03 0.04 0.04 0.04 0.06 0.06 0.05 0.03 0.03 0.03 0.03 0.03 0.03 0.04 0.04 0.05 0.09 0.12 0.12 0.13 0.12 0.11 0.10 0.08 0.07 0.07 0.09 0.08 0.09 0.08 0.07 0.09 0.12
0.02 0.02 0.01 0.01 0.02 0.02 0.03 0.03 0.03 0.02 0.03 0.03 0.02 0.02 0.03 0.03 0.03 0.02 0.01 0.02 0.02 0.01 0.03 0.06 0.09 0.10 0.12 0.12 0.10 0.10 0.09 0.09 0.10 0.11 0.10 0.09 0.09 0.08 0.08 0.07 0.08 0.09 0.08
0.03 0.03 0.01 0.02 0.02 0.03 0.02 0.02 0.02 0.01 0.01 0.01 0.01 0.00 0.00 0.01 0.01 0.01 0.01 0.01 0.01 0.01 0.02 0.06 0.11 0.11 0.11 0.10 0.08 0.05 0.05 0.05 0.05 0.08 0.10 0.09 0.09 0.08 0.07 0.07 0.09 0.08 0.06
0.05 0.03 0.03 0.03 0.03 0.03 0.02 0.02 0.02 0.01 0.01 0.00 0.00 0.01 0.00 0.00 0.01 0.01 0.00 0.01 0.01 0.01 0.01 0.03 0.05 0.07 0.08 0.08 0.06 0.04 0.03 0.03 0.03 0.04 0.07 0.08 0.07 0.07 0.06 0.06 0.07 0.06 0.05
0.08 0.05 0.04 0.04 0.03 0.02 0.02 0.01 0.01 0.01 0.00 0.00 0.00 0.01 0.01 0.01 0.01 0.01 0.01 0.01 0.01 0.01 0.01 0.02 0.02 0.04 0.05 0.07 0.06 0.06 0.04 0.04 0.03 0.02 0.03 0.05 0.06 0.05 0.04 0.04 0.03 0.02 0.02
MSLP
1003.78 1003.27 1003.04 1003.11 1003.40 1003.83 1004.28 1004.66 1004.90 1005.03 1005.07 1005.13 1005.28 1005.57 1006.02 1006.60 1007.24 1007.87 1008.42 1008.84 1009.16 1009.40 1009.62 1009.87 1010.19 1010.57 1010.99 1011.40 1011.76 1012.04 1012.23 1012.35 1012.43 1012.51 1012.63 1012.79 1012.99 1013.20 1013.40 1013.57 1013.70 1013.81 1013.92
1003.49 1003.05 1002.86 1002.94 1003.24 1003.65 1004.08 1004.44 1004.69 1004.82 1004.90 1004.99 1005.18 1005.51 1006.00 1006.62 1007.29 1007.94 1008.51 1008.95 1009.28 1009.54 1009.77 1010.02 1010.34 1010.71 1011.11 1011.50 1011.83 1012.09 1012.25 1012.35 1012.42 1012.50 1012.62 1012.79 1013.01 1013.24 1013.46 1013.65 1013.79 1013.91 1014.02
1003.10 1002.72 1002.56 1002.66 1002.95 1003.36 1003.80 1004.17 1004.45 1004.62 1004.73 1004.87 1005.09 1005.45 1005.96 1006.58 1007.25 1007.91 1008.48 1008.94 1009.29 1009.58 1009.83 1010.11 1010.43 1010.80 1011.19 1011.56 1011.88 1012.11 1012.27 1012.36 1012.43 1012.52 1012.65 1012.84 1013.07 1013.31 1013.54 1013.73 1013.89 1014.01 1014.13
1002.62 1002.27 1002.12 1002.22 1002.51 1002.94 1003.40 1003.83 1004.16 1004.40 1004.57 1004.75 1005.01 1005.38 1005.87 1006.48 1007.13 1007.77 1008.35 1008.83 1009.22 1009.54 1009.84 1010.15 1010.49 1010.87 1011.26 1011.63 1011.94 1012.18 1012.34 1012.45 1012.53 1012.64 1012.78 1012.97 1013.19 1013.43 1013.65 1013.84 1013.99 1014.12 1014.24
1002.04 1001.67 1001.50 1001.57 1001.87 1002.32 1002.84 1003.34 1003.77 1004.10 1004.37 1004.61 1004.90 1005.28 1005.76 1006.34 1006.96 1007.59 1008.17 1008.67 1009.10 1009.48 1009.83 1010.19 1010.57 1010.97 1011.37 1011.74 1012.06 1012.31 1012.50 1012.63 1012.74 1012.86 1013.01 1013.19 1013.39 1013.60 1013.79 1013.96 1014.10 1014.23 1014.36
1001.34 1000.87 1000.63 1000.67 1000.96 1001.44 1002.04 1002.65 1003.21 1003.68 1004.07 1004.41 1004.76 1005.16 1005.64 1006.19 1006.79 1007.40 1007.99 1008.53 1009.01 1009.45 1009.86 1010.27 1010.69 1011.12 1011.53 1011.92 1012.26 1012.53 1012.74 1012.91 1013.05 1013.18 1013.32 1013.48 1013.65 1013.81 1013.96 1014.09 1014.21 1014.33 1014.48
1000.47 999.86 999.51 999.47 999.74 1000.27 1000.95 1001.70 1002.43 1003.08 1003.64 1004.12 1004.57 1005.03 1005.52 1006.07 1006.66 1007.27 1007.87 1008.44 1008.97 1009.47 1009.94 1010.40 1010.86 1011.31 1011.75 1012.15 1012.51 1012.81 1013.05 1013.25 1013.41 1013.55 1013.68 1013.80 1013.91 1014.01 1014.11 1014.20 1014.29 1014.42 1014.58
999.44 998.63 998.13 998.00 998.24 998.81 999.60 1000.52 1001.44 1002.31 1003.08 1003.74 1004.33 1004.88 1005.43 1006.00 1006.60 1007.22 1007.84 1008.44 1009.02 1009.56 1010.08 1010.58 1011.07 1011.54 1011.99 1012.40 1012.78 1013.10 1013.37 1013.59 1013.76 1013.90 1014.00 1014.08 1014.13 1014.17 1014.21 1014.25 1014.33 1014.46 1014.65
998.30 997.27 996.59 996.36 996.57 997.18 998.09 999.17 1000.31 1001.42 1002.42 1003.30 1004.07 1004.75 1005.39 1006.01 1006.63 1007.27 1007.90 1008.52 1009.13 1009.70 1010.25 1010.78 1011.28 1011.76 1012.21 1012.64 1013.02 1013.36 1013.65 1013.88 1014.05 1014.17 1014.24 1014.27 1014.26 1014.24 1014.22 1014.24 1014.31 1014.45 1014.67
997.18 995.94 995.10 994.76 994.93 995.58 996.58 997.83 999.18 1000.53 1001.77 1002.88 1003.84 1004.67 1005.42 1006.10 1006.76 1007.41 1008.05 1008.68 1009.29 1009.88 1010.43 1010.96 1011.47 1011.95 1012.40 1012.83 1013.22 1013.56 1013.85 1014.08 1014.25 1014.34 1014.37 1014.35 1014.29 1014.21 1014.16 1014.16 1014.23 1014.40 1014.66
996.25 994.84 993.86 993.44 993.58 994.24 995.32 996.70 998.24 999.79 1001.25 1002.57 1003.71 1004.69 1005.54 1006.29 1006.98 1007.64 1008.27 1008.89 1009.49 1010.06 1010.61 1011.14 1011.64 1012.11 1012.56 1012.98 1013.37 1013.71 1014.00 1014.21 1014.35 1014.41 1014.40 1014.33 1014.22 1014.12 1014.04 1014.03 1014.12 1014.31 1014.61
995.72 994.20 993.14 992.64 992.75 993.41 994.53 996.00 997.65 999.35 1000.98 1002.46 1003.75 1004.85 1005.79 1006.59 1007.30 1007.95 1008.56 1009.15 1009.72 1010.27 1010.80 1011.32 1011.81 1012.28 1012.72 1013.14 1013.52 1013.86 1014.12 1014.31 1014.42 1014.44 1014.38 1014.26 1014.12 1013.99 1013.90 1013.90 1014.01 1014.23 1014.57
995.75 994.20 993.10 992.57 992.63 993.27 994.39 995.87 997.57 999.34 1001.06 1002.63 1004.01 1005.18 1006.16 1006.99 1007.70 1008.33 1008.92 1009.47 1010.01 1010.53 1011.03 1011.53 1012.01 1012.48 1012.93 1013.35 1013.73 1014.05 1014.29 1014.45 1014.51 1014.48 1014.37 1014.21 1014.04 1013.89 1013.81 1013.82 1013.95 1014.20 1014.55
996.41 994.91 993.83 993.29 993.32 993.90 994.96 996.39 998.05 999.80 1001.52 1003.10 1004.50 1005.68 1006.67 1007.49 1008.19 1008.79 1009.34 1009.85 1010.35 1010.84 1011.33 1011.82 1012.30 1012.78 1013.23 1013.65 1014.03 1014.33 1014.55 1014.67 1014.69 1014.60 1014.45 1014.25 1014.05 1013.89 1013.81 1013.83 1013.97 1014.23 1014.58
997.67 996.30 995.29 994.76 994.75 995.25 996.21 997.52 999.07 1000.71 1002.34 1003.86 1005.20 1006.34 1007.29 1008.07 1008.73 1009.30 1009.81 1010.29 1010.77 1011.24 1011.72 1012.20 1012.69 1013.17 1013.64 1014.07 1014.44 1014.74 1014.94 1015.02 1014.99 1014.86 1014.66 1014.43 1014.20 1014.02 1013.94 1013.96 1014.10 1014.35 1014.68
999.43 998.22 997.31 996.82 996.77 997.18 997.99 999.14 1000.51 1001.98 1003.45 1004.83 1006.05 1007.09 1007.97 1008.69 1009.30 1009.83 1010.32 1010.78 1011.24 1011.71 1012.18 1012.67 1013.16 1013.66 1014.13 1014.58 1014.96 1015.25 1015.43 1015.50 1015.44 1015.27 1015.03 1014.77 1014.51 1014.32 1014.21 1014.22 1014.34 1014.56 1014.85
1001.44 1000.42 999.63 999.17 999.09 999.40 1000.06 1001.03 1002.19 1003.45 1004.72 1005.90 1006.96 1007.88 1008.65 1009.30 1009.86 1010.36 1010.83 1011.28 1011.74 1012.21 1012.69 1013.18 1013.68 1014.18 1014.67 1015.12 1015.51 1015.81 1016.00 1016.05 1015.98 1015.80 1015.54 1015.25 1014.97 1014.76 1014.63 1014.60 1014.68 1014.85 1015.09
1003.48 1002.64 1001.97 1001.55 1001.44 1001.66 1002.19 1002.96 1003.92 1004.96 1006.00 1006.99 1007.86 1008.63 1009.28 1009.85 1010.36 1010.84 1011.30 1011.76 1012.23 1012.70 1013.18 1013.68 1014.18 1014.68 1015.18 1015.64 1016.04 1016.36 1016.56 1016.63 1016.58 1016.40 1016.14 1015.85 1015.56 1015.32 1015.16 1015.09 1015.12 1015.23 1015.39
1005.34 1004.65 1004.09 1003.71 1003.59 1003.75 1004.16 1004.78 1005.55 1006.38 1007.22 1008.00 1008.69 1009.30 1009.84 1010.32 1010.79 1011.24 1011.71 1012.18 1012.66 1013.15 1013.63 1014.12 1014.62 1015.11 1015.60 1016.06 1016.48 1016.82 1017.06 1017.17 1017.16 1017.02 1016.79 1016.51 1016.23 1015.98 1015.79 1015.68 1015.65 1015.69 1015.77
1006.87 1006.32 1005.84 1005.51 1005.39 1005.51 1005.84 1006.35 1006.97 1007.64 1008.30 1008.89 1009.42 1009.89 1010.31 1010.72 1011.14 1011.58 1012.05 1012.54 1013.04 1013.53 1014.01 1014.49 1014.96 1015.43 1015.90 1016.37 1016.80 1017.17 1017.45 1017.63 1017.68 1017.61 1017.44 1017.20 1016.94 1016.69 1016.49 1016.34 1016.26 1016.23 1016.23
1008.05 1007.58 1007.17 1006.89 1006.79 1006.90 1007.20 1007.64 1008.17 1008.72 1009.23 1009.68 1010.07 1010.41 1010.73 1011.06 1011.44 1011.87 1012.35 1012.85 1013.36 1013.86 1014.33 1014.78 1015.22 1015.65 1016.09 1016.54 1016.98 1017.38 1017.72 1017.97 1018.11 1018.12 1018.03 1017.86 1017.65 1017.42 1017.22 1017.05 1016.92 1016.84 1016.78
1008.87 1008.48 1008.12 1007.88 1007.82 1007.95 1008.26 1008.68 1009.16 1009.63 1010.05 1010.38 1010.66 1010.89 1011.12 1011.40 1011.74 1012.15 1012.63 1013.14 1013.66 1014.15 1014.60 1015.01 1015.41 1015.79 1016.20 1016.62 1017.05 1017.48 1017.87 1018.19 1018.42 1018.53 1018.54 1018.46 1018.31 1018.13 1017.94 1017.77 1017.63 1017.51 1017.40
1009.44 1009.08 1008.77 1008.58 1008.57 1008.74 1009.07 1009.51 1009.98 1010.41 1010.77 1011.03 1011.22 1011.37 1011.53 1011.75 1012.06 1012.46 1012.93 1013.44 1013.96 1014.43 1014.86 1015.23 1015.57 1015.90 1016.24 1016.62 1017.04 1017.48 1017.91 1018.30 1018.61 1018.82 1018.93 1018.94 1018.87 1018.76 1018.62 1018.47 1018.33 1018.20 1018.07
1009.83 1009.51 1009.24 1009.10 1009.13 1009.35 1009.73 1010.19 1010.67 1011.10 1011.43 1011.65 1011.78 1011.87 1011.98 1012.16 1012.43 1012.81 1013.27 1013.78 1014.28 1014.73 1015.12 1015.44 1015.72 1015.98 1016.26 1016.59 1016.98 1017.40 1017.85 1018.28 1018.66 1018.95 1019.15 1019.26 1019.28 1019.25 1019.17 1019.07 1018.97 1018.86 1018.74
1010.14 1009.86 1009.63 1009.52 1009.60 1009.86 1010.28 1010.77 1011.27 1011.71 1012.03 1012.22 1012.32 1012.38 1012.45 1012.60 1012.84 1013.20 1013.65 1014.13 1014.61 1015.03 1015.38 1015.65 1015.87 1016.06 1016.27 1016.53 1016.86 1017.26 1017.70 1018.14 1018.56 1018.92 1019.19 1019.39 1019.50 1019.55 1019.56 1019.53 1019.49 1019.42 1019.34
1010.41 1010.18 1009.98 1009.91 1010.01 1010.30 1010.74 1011.26 1011.78 1012.22 1012.55 1012.74 1012.83 1012.87 1012.92 1013.04 1013.26 1013.60 1014.02 1014.48 1014.92 1015.31 1015.61 1015.83 1015.98 1016.11 1016.25 1016.44 1016.71 1017.05 1017.45 1017.88 1018.31 1018.70 1019.03 1019.30 1019.49 1019.64 1019.74 1019.80 1019.84 1019.85 1019.82
Thickness
5801 5805 5805 5804 5802 5802 5802 5802 5801 5801 5801 5801 5800 5799 5798 5797 5796 5796 5796 5795 5794 5793 5792 5791 5791 5792 5790 5788 5786 5784 5783 5782 5781 5780 5778 5777 5775 5774 5773 5772 5771 5770 5768
5805 5806 5805 5803 5802 5801 5801 5800 5800 5800 5801 5801 5801 5799 5798 5797 5796 5795 5795 5794 5793 5793 5792 5791 5790 5790 5789 5787 5786 5784 5783 5782 5781 5780 5778 5777 5775 5774 5773 5772 5771 5769 5768
5806 5805 5804 5802 5801 5801 5800 5799 5799 5799 5800 5801 5801 5799 5798 5796 5795 5795 5794 5794 5793 5792 5791 5790 5789 5788 5788 5786 5785 5784 5783 5782 5781 5779 5778 5777 5776 5774 5773 5772 5771 5769 5768
5805 5804 5802 5802 5801 5800 5799 5798 5798 5798 5798 5799 5799 5798 5797 5796 5795 5794 5794 5793 5792 5792 5791 5790 5789 5788 5787 5786 5785 5783 5782 5781 5780 5779 5778 5777 5775 5774 5773 5772 5770 5769 5768
5804 5803 5802 5801 5800 5799 5798 5797 5797 5797 5798 5798 5797 5797 5795 5795 5794 5793 5793 5792 5792 5791 5790 5789 5788 5787 5786 5785 5784 5783 5782 5780 5779 5778 5777 5776 5775 5774 5773 5772 5770 5769 5768
5802 5802 5801 5801 5800 5799 5797 5797 5797 5797 5797 5797 5797 5796 5794 5794 5793 5792 5792 5791 5791 5790 5789 5788 5787 5786 5785 5784 5783 5782 5781 5780 5778 5777 5776 5775 5774 5774 5773 5772 5771 5769 5768
5801 5801 5801 5801 5801 5800 5798 5796 5796 5796 5796 5796 5796 5794 5793 5792 5792 5791 5791 5790 5790 5789 5788 5787 5786 5785 5784 5783 5782 5781 5780 5779 5777 5776 5775 5774 5774 5773 5772 5771 5770 5769 5768
5800 5799 5800 5800 5800 5800 5798 5796 5795 5795 5794 5794 5794 5793 5792 5791 5791 5790 5790 5789 5788 5787 5786 5786 5785 5784 5783 5782 5781 5780 5779 5778 5777 5775 5774 5773 5773 5772 5771 5770 5770 5769 5768
5799 5798 5798 5798 5798 5797 5796 5795 5794 5794 5793 5793 5792 5792 5791 5790 5789 5788 5788 5787 5787 5787 5786 5785 5784 5784 5783 5782 5781 5779 5778 5777 5775 5774 5773 5773 5772 5771 5770 5769 5769 5768 5767
5798 5797 5797 5797 5796 5795 5794 5794 5793 5792 5792 5791 5791 5790 5789 5788 5788 5787 5787 5786 5786 5785 5784 5784 5783 5783 5782 5780 5779 5778 5776 5775 5774 5773 5772 5772 5771 5770 5770 5769 5768 5767 5765
5795 5796 5796 5795 5795 5794 5793 5792 5792 5791 5790 5789 5788 5788 5787 5786 5786 5786 5785 5785 5784 5783 5783 5783 5782 5781 5781 5779 5778 5776 5774 5773 5773 5772 5771 5771 5770 5769 5769 5768 5767 5766 5764
5792 5793 5795 5794 5794 5793 5792 5791 5790 5789 5788 5787 5786 5785 5784 5784 5784 5784 5783 5783 5783 5782 5781 5781 5781 5780 5779 5777 5776 5774 5773 5772 5771 5770 5770 5770 5769 5768 5768 5767 5766 5765 5763
5792 5793 5794 5793 5793 5792 5790 5789 5788 5787 5786 5785 5784 5783 5783 5783 5782 5782 5780 5780 5780 5779 5779 5778 5778 5777 5776 5775 5774 5772 5771 5770 5769 5769 5769 5768 5768 5767 5767 5766 5765 5763 5762
5792 5792 5793 5793 5792 5790 5789 5788 5787 5785 5784 5783 5782 5781 5781 5780 5780 5779 5778 5777 5777 5777 5776 5776 5775 5775 5774 5773 5772 5770 5768 5768 5768 5768 5767 5767 5766 5766 5766 5765 5764 5762 5761
5791 5791 5791 5792 5790 5789 5788 5787 5786 5784 5783 5782 5781 5780 5779 5778 5777 5776 5775 5775 5774 5774 5774 5773 5773 5772 5771 5771 5770 5768 5767 5765 5765 5765 5765 5765 5765 5765 5764 5764 5763 5761 5759
5792 5791 5791 5791 5790 5789 5787 5786 5785 5783 5782 5781 5779 5779 5778 5777 5775 5774 5773 5772 5772 5772 5771 5771 5771 5770 5769 5768 5766 5765 5764 5763 5762 5763 5763 5763 5763 5763 5762 5762 5761 5759 5758
5793 5793 5791 5791 5790 5788 5787 5785 5784 5782 5781 5779 5778 5777 5776 5775 5774 5772 5770 5769 5769 5769 5768 5768 5768 5768 5766 5765 5763 5762 5761 5760 5760 5760 5760 5760 5760 5760 5760 5759 5758 5757 5756
5794 5792 5791 5791 5788 5787 5786 5784 5782 5781 5780 5778 5777 5776 5775 5774 5772 5770 5768 5767 5766 5766 5765 5764 5764 5763 5761 5760 5759 5758 5758 5758 5757 5757 5757 5758 5758 5758 5757 5757 5756 5755 5754
5793 5792 5790 5789 5788 5786 5785 5783 5781 5780 5778 5776 5775 5774 5773 5772 5770 5768 5766 5764 5764 5763 5762 5761 5760 5758 5757 5756 5756 5755 5755 5754 5754 5754 5754 5755 5755 5755 5754 5754 5754 5752 5751
5793 5791 5789 5788 5786 5785 5783 5781 5779 5777 5776 5775 5773 5772 5771 5769 5768 5766 5764 5762 5761 5760 5758 5757 5756 5755 5754 5754 5753 5752 5751 5751 5751 5751 5751 5751 5751 5751 5751 5751 5750 5749 5748
5792 5789 5788 5786 5785 5783 5781 5778 5775 5772 5772 5771 5771 5769 5768 5767 5765 5764 5762 5760 5758 5756 5754 5754 5753 5751 5750 5750 5748 5746 5746 5747 5747 5747 5747 5747 5748 5747 5747 5747 5746 5746 5745
5791 5789 5787 5785 5784 5783 5781 5778 5775 5772 5770 5769 5767 5766 5765 5764 5763 5761 5759 5757 5756 5753 5752 5750 5749 5747 5746 5745 5742 5739 5736 5738 5741 5743 5743 5743 5743 5743 5744 5744 5743 5742 5741
5790 5789 5788 5785 5784 5782 5780 5777 5774 5770 5767 5765 5763 5762 5762 5761 5760 5758 5756 5754 5753 5751 5748 5747 5746 5744 5741 5741 5740 5737 5732 5728 5732 5735 5737 5738 5738 5739 5739 5739 5739 5739 5738
5791 5790 5788 5784 5782 5781 5778 5775 5771 5766 5761 5760 5760 5759 5758 5757 5756 5754 5753 5751 5749 5747 5745 5744 5743 5741 5739 5736 5736 5736 5735 5733 5728 5726 5730 5732 5733 5734 5734 5735 5735 5735 5735
5792 5789 5786 5783 5780 5778 5776 5773 5769 5764 5761 5759 5758 5756 5755 5754 5753 5751 5750 5747 5745 5744 5742 5740 5739 5738 5736 5734 5732 5732 5731 5730 5728 5724 5721 5724 5726 5728 5729 5730 5730 5731 5731
5791 5788 5784 5779 5777 5776 5773 5770 5767 5763 5759 5756 5754 5752 5750 5749 5749 5748 5746 5744 5742 5740 5738 5737 5736 5734 5733 5732 5731 5730 5728 5726 5724 5722 5719 5718 5718 5722 5724 5725 5726 5726 5726